Location: *
(50.2903°S, 172.5375°W)
Time: 04:18:58
(UTC+00:00)

PSLV R/B - Pass Details

Date: 17 November 2019
Orbit: 594 x 630 km, 97.9° (Epoch: 05 December)

Event Time Altitude Azimuth Distance (km) Brightness Sun altitude
Rises 14:00:12 0° 24° (NNE) 2,908 6.7 -11.7°
Reaches altitude 10° 14:02:23 10° 26° (NNE) 2,013 5.9 -11.5°
Maximum altitude 14:06:45 67° 108° (ESE) 698 4.0 -11.1°
Drops below altitude 10° 14:11:11 10° 189° (S) 2,052 6.8 -10.6°
Sets 14:13:26 0° 191° (SSW) 2,969 7.6 -10.4°
